Flag for Venezuela Weather past 2 weeks in Valencia, Venezuela

Now
82 °F

Clear.


Feels Like: 86 °F
Forecast: 70 / 87 °F
Wind: 6 mph from Northeast

Location: Valencia Airport

Current Time: May 27, 2015 at 11:51:25 PM

Latest Report: May 27, 2015 at 10:30 PM


Visibility: 10 mi

Pressure: 29.92 "Hg

Humidity: 66%

Dew point: 70 °F

Location of ValenciaLocation

Historic Weather in Valencia — Graph

°F

Valencia temperature yesterday

Maximum temperature yesterday: 91 °F (at 1:30 PM)
Minimum temperature yesterday: 77 °F (at 6:30 AM)
Average temperature yesterday: 85 °F

Past Weeks' High & Low Weather Summary

 TemperatureHumidityPressure
High97 °F (May 13, 2:30 PM)100% (May 14, 12:30 PM)30.09 "Hg (May 14, 12:30 PM)
Low37 °F (May 14, 12:30 PM)36% (May 17, 3:30 PM)29.83 "Hg (May 13, 4:30 AM)
Average85 °F61%29.96 "Hg
* Reported May 12 9:30 PM — May 27 9:30 PM, Valencia, Weather by CustomWeather, © 2015

Note: Actual official high and low records may vary slightly from our data, if they occured in-between our weather recording intervals... More about our weather records

Advertising

Valencia weather history for previous 24 hours

 ConditionsComfort  
Time TempWeatherWind HumidityBarometerVisibility
9:30 PM
Wed, May 27
82 °FClear.7 mph66%29.89 "Hg10 mi
8:30 PM84 °FPassing clouds.6 mph62%29.89 "HgN/A
6:30 PM90 °FPassing clouds.5 mph46%29.83 "HgN/A
5:30 PM93 °FScattered clouds.7 mph44%29.83 "HgN/A
4:30 PM95 °FScattered clouds.8 mph41%29.83 "HgN/A
3:30 PM95 °FScattered clouds.6 mph41%29.86 "HgN/A
2:30 PM93 °FScattered clouds.5 mph47%29.86 "HgN/A
1:30 PM93 °FScattered clouds.3 mph44%29.89 "HgN/A
12:30 PM91 °FScattered clouds.5 mph46%29.92 "HgN/A
11:30 AM90 °FPassing clouds.2 mph49%29.95 "HgN/A
10:30 AM90 °FPassing clouds.3 mph49%29.98 "HgN/A
9:30 AM84 °FPassing clouds.8 mph58%29.98 "HgN/A
8:30 AM84 °FPassing clouds.3 mph58%29.95 "HgN/A
7:30 AM81 °FPassing clouds.9 mph66%29.95 "HgN/A
6:30 AM79 °FPassing clouds.5 mph70%29.92 "HgN/A
5:30 AM79 °FPassing clouds.3 mph74%29.92 "HgN/A
4:30 AM79 °FPassing clouds.2 mph70%29.89 "HgN/A
Weather by CustomWeather, © 2015

See weather overviewHow to use our weather pages